STARLINK-11265 [DTC]

Last updated on Tue Oct 01 2024 00:02:04 GMT+0000 (Coordinated Universal Time)

1 60909U 24154G 24274.20479597 .00014319 00000+0 91279-4 0 9991 2 60909 53.1593 202.9821 0001637 67.8994 292.2200 15.76743263 5967
UTC large
Height (km)
Speed (km/s)
/
Latitude / Longitude
Inclination (degrees)
Orbital Period (minutes)
Azimuth
Elevation
Range (km)
Doppler Factor

Next 0 passes for location: London (51.5072 / 0.1276)

Sorry there are no passes over London.